Location: Kelshall
(52.0000°N, 0.0500°W)
Time: 11:38:13
(UTC+00:00)

IGS 5A - Pass Details

Date: 18 September 2020
Orbit: 583 x 588 km, 97.6° (Epoch: 09 October)

Event Time Altitude Azimuth Distance (km) Brightness Sun altitude
Exits shadow 21:13:36 54° 297° (WNW) 721 4.1 -26.8°
Drops below altitude 10° 21:17:08 10° 340° (NNW) 1,919 6.9 -27.2°
Sets 21:19:20 0° 344° (NNW) 2,824 7.9 -27.4°
